Location: Cousin
(45.3522°N, 1.7810°E)
Time: 22:07:26
(UTC+00:00)

Daily predictions for brighter satellites

Satellite Brightness Start Highest point End
(mag) Time Altitude Azimuth Time Altitude Azimuth Time Altitude Azimuth
ATLAS 2AS CENTAUR R/B 4.1 16:36:29 10° W 16:43:36 36° NW 16:50:31 10° NNE
Cosmos-2242 4.1 16:40:49 10° SSW 16:44:59 47° WNW 16:49:09 10° N
ATLAS CENTAUR R/B 4.3 16:34:52 10° SSW 16:45:45 37° SE 16:50:40 10° ENE
SJ 16-02 1.3 16:45:56 10° NNW 16:50:19 73° ENE 16:54:41 10° SSE
Okean 3 Rocket 3.6 16:49:17 10° N 16:53:51 88° E 16:58:19 10° S
Cosmos 1500 Rocket 4.4 16:50:36 10° NNE 16:54:29 28° ENE 16:58:19 10° SE
Cosmos 2034 Rocket 4.3 16:48:53 10° SSE 16:54:40 44° E 17:00:27 10° NNE
CORIOLIS 4.3 16:54:19 10° SSE 16:59:33 55° ENE 17:04:51 10° N
USA 306 3.5 16:55:49 10° WSW 16:59:57 48° NNW 17:04:00 10° NE
NOSS 2-1 (C) 3.7 16:57:14 10° WSW 17:00:23 44° NW 17:03:34 10° NNE
NOSS 3-1 (A) 4.3 16:54:04 10° NNW 17:01:02 45° NE 17:09:09 10° ESE
CZ-2D R/B 4.1 16:57:45 10° SE 17:01:06 29° ENE 17:04:28 10° N
USA 234 3.5 16:56:56 10° SE 17:03:29 76° SW 17:10:02 10° NW
NOSS 3-1 (C) 4.1 16:57:02 10° NW 17:04:23 65° NE 17:13:01 10° SE
Aureole 3 4.5 16:59:32 10° S 17:04:55 85° W 17:11:44 10° N
SL-08 R/B 4.0 17:01:24 10° N 17:06:05 56° WNW 17:10:38 10° SSW
Iridium 2 3.9 17:02:32 10° N 17:06:18 71° W 17:10:01 10° S
Cosmos 1842 Rocket 3.6 17:02:00 10° S 17:06:22 58° E 17:10:46 10° NNE
Cosmos 1833 Rocket 3.7 17:03:04 10° SSE 17:07:36 26° ESE 17:11:51 11° NE
NOSS 2-1 (D) 4.1 17:06:42 10° WSW 17:09:43 35° NW 17:12:50 10° NNE
Meteor 2-2 Rocket 4.4 17:03:48 10° S 17:09:49 88° ESE 17:15:53 10° NNE
PSLV R/B 3.9 17:09:27 10° SE 17:12:58 45° ENE 17:16:31 10° N
CZ-4B R/B 3.7 17:08:34 10° SE 17:13:28 36° ENE 17:18:20 10° N
USA 307 3.7 17:12:21 10° W 17:16:27 43° NNW 17:19:51 14° NE
Sich 1 4.1 17:13:06 10° NNE 17:16:29 22° ENE 17:19:51 10° ESE
Cosmos 1939 Rocket 3.0 17:12:24 10° SSE 17:16:32 85° WSW 17:20:40 10° NNW
ERBS 2.6 17:13:51 10° WSW 17:17:00 56° NW 17:19:27 16° NE
SMAP 3.0 17:12:39 10° SSE 17:17:18 88° ENE 17:22:00 10° NNW
ARGOS 3.9 17:13:06 10° SE 17:17:48 31° ENE 17:22:29 10° N
Cosmos 1606 3.0 17:15:02 10° SSW 17:18:46 69° W 17:22:32 10° N
H-2A R/B 2.2 17:14:18 10° SE 17:19:18 48° ENE 17:24:13 10° N
Cosmos 1898 Rocket 4.0 17:15:11 10° N 17:20:03 36° ENE 17:24:52 10° SE
MOS 1-B Rocket 4.3 17:16:29 10° NNE 17:22:00 44° E 17:28:05 10° S
COSMOS 2455 4.2 17:19:47 10° SSE 17:23:53 19° ESE 17:25:52 17° E
ATLAS CENTAUR R/B 3.1 17:21:24 10° W 17:25:00 27° NW 17:28:51 10° NNE
Cosmos 468 Rocket 4.4 17:21:09 10° S 17:25:58 42° ESE 17:30:21 13° NE
Cosmos 2221 2.7 17:21:45 10° SSW 17:26:00 75° W 17:30:18 10° N
Cosmos 44 3.1 17:23:35 10° NNW 17:28:24 72° NE 17:32:54 10° SE
COSMO-SKYMED 1 3.1 17:29:13 13° NNE 17:32:46 36° E 17:36:45 10° SSE
Cosmos 540 Rocket 4.2 17:30:19 10° SSE 17:34:43 30° E 17:37:03 21° ENE
Cosmos 2026 Rocket 4.1 17:29:01 10° N 17:34:59 48° ENE 17:40:50 10° SSE
deb Chang Zheng 4 3.8 17:31:56 10° SE 17:36:02 45° ENE 17:40:10 10° N
Cosmos 2195 Rocket 4.5 17:31:05 10° N 17:37:09 59° ENE 17:43:13 10° SSE
USA 308 4.0 17:34:53 10° W 17:38:49 35° NNW 17:41:12 20° NE
CZ-2C R/B 2.8 17:34:03 10° NNE 17:39:04 44° E 17:43:59 10° S
Okean O Rocket 2.0 17:36:07 10° SE 17:40:18 42° ENE 17:44:31 10° N
Cosmos 1500 4.2 17:37:38 10° NNE 17:44:46 - SE 17:40:06 26° NE
Meteor 1-25 Rocket 4.1 17:38:34 10° N 17:44:08 71° ENE 17:49:42 10° SSE
ISS -2.4 17:41:13 10° WNW 17:44:11 27° N 17:44:55 25° NNE
CZ-4C R/B 3.6 17:40:18 10° NNW 17:46:24 32° NE 17:49:48 23° ENE
Meteor 2-21 4.5 17:40:33 10° N 17:46:32 53° ENE 17:52:25 10° SSE
YAOGAN 1 4.2 17:50:23 18° NNE 17:50:23 18° NNE 17:51:53 10° N
MOS 1-B 4.4 17:46:24 10° SSE 17:52:11 86° WSW 17:58:01 10° NNW
CZ-4 R/B 3.8 18:00:21 10° N 18:00:21 10° N 18:00:25 10° N
SKYMED 3 4.5 17:53:35 16° NNE 17:56:57 65° ESE 18:01:15 10° S
Cosmos 2084 3.5 17:53:45 10° NNW 17:58:00 58° NE 17:59:42 34° ESE
Cosmos 2322 Rocket 4.3 17:56:59 10° NNE 17:57:36 11° NNE 17:57:36 11° NNE
Cosmos 2369 4.0 17:53:52 10° NNW 17:59:23 45° ENE 18:02:24 25° ESE
GEOS 3 Rocket 3.6 17:56:54 15° SE 18:01:10 66° NE 18:06:20 10° NNW
Cosmos 1782 2.8 17:57:31 10° S 18:01:26 57° E 18:02:36 40° NE
Cosmos 1743 Rocket 4.0 17:57:45 10° NNW 18:02:02 62° W 18:06:17 10° S
Cosmos 1763 Rocket 3.4 18:02:27 10° SSW 18:07:31 81° WNW 18:11:17 19° NNE
Cosmos 1697 Rocket 2.5 18:02:02 10° NNW 18:07:41 75° ENE 18:13:17 10° SSE
Cosmos 1937 Rocket 3.4 18:02:44 10° NNW 18:08:03 66° ENE 18:13:20 10° SSE
USA 305 4.2 18:04:44 10° WNW 18:08:25 28° N 18:09:22 26° NNE
Cosmos 841 Rocket 3.7 18:04:16 10° S 18:09:12 47° ESE 18:10:10 42° ENE
Cosmos 1980 Rocket 2.5 18:04:13 10° NNW 18:09:37 43° ENE 18:10:40 39° E
USA 267 4.2 18:08:54 21° NE 18:12:33 38° NNW 18:18:28 10° W
Cosmos 1340 Rocket 4.4 18:09:17 10° NNW 18:13:02 36° W 18:16:47 10° SSW
Cosmos 1812 4.4 18:09:30 10° SSE 18:10:59 21° SSE 18:10:59 21° SSE
Cosmos 1656 4.5 18:08:06 10° NW 18:13:27 51° WSW 18:18:50 10° S
SL-16 R/B 4.0 18:09:52 10° N 18:11:40 15° NNE 18:11:40 15° NNE
Meteor 2-14 Rocket 4.3 18:08:20 10° N 18:14:29 86° E 18:20:34 10° S
Cosmos 2082 Rocket 2.4 18:12:48 10° S 18:18:11 44° ESE 18:18:33 44° E
USA 276 3.1 18:17:44 10° WNW 18:19:58 43° WNW 18:19:58 43° WNW
SKYMED 2 3.7 18:17:49 19° N 18:20:55 71° WNW 18:25:14 10° SSW
Lacrosse 5 rocket 3.3 18:19:10 10° NNW 18:20:53 16° N 18:20:53 16° N
Cosmos 1151 Rocket 4.0 18:18:21 10° S 18:20:53 33° SSE 18:20:53 33° SSE
Cosmos 1602 4.4 18:19:13 10° NNW 18:22:59 54° W 18:26:43 10° S
Cosmos 1092 Rocket 4.5 18:17:00 10° NNW 18:23:16 64° W 18:29:31 10° S
COSMOS 2406 3.1 18:17:51 10° SSW 18:23:36 80° ESE 18:26:02 37° NNE
Cosmos 1933 4.2 18:20:08 10° SSW 18:24:04 49° WNW 18:27:09 16° N
Cosmos 2278 4.2 18:20:01 10° NNW 18:24:47 40° NE 18:24:47 40° NE
USA 229 DEB 4.0 18:21:36 10° NW 18:28:59 81° SW 18:36:49 10° SSE
USA 229 4.0 18:21:42 10° NW 18:29:05 82° SW 18:36:54 10° SSE
Feng Yun 1-1 Rocket 4.3 18:24:16 10° SSE 18:30:11 81° ENE 18:36:07 10° NNW
Meteor 2-21 Rocket 4.3 18:24:36 10° N 18:30:46 86° E 18:36:51 10° S
Cosmos 372 Rocket 3.8 18:29:45 10° NNW 18:34:59 71° ENE 18:35:15 70° E
Cosmos 2142 Rocket 4.3 18:30:47 10° S 18:36:56 85° E 18:43:09 10° N
Meteor 2-8 Rocket 4.4 18:31:56 10° S 18:37:57 61° E 18:38:41 57° ENE
Cosmos 1833 Rocket 3.4 18:45:44 10° SW 18:51:11 51° WNW 18:53:35 31° N
Cosmos 2279 Rocket 4.1 18:48:52 10° SSW 18:55:05 76° W 19:01:20 10° N
ARGOS 4.4 18:52:49 10° SSW 18:57:54 40° W 19:03:01 10° NNW
Meteor 1-14 Rocket 4.5 18:52:20 10° NNW 18:58:05 70° W 19:03:56 10° S
H-2A R/B 4.3 18:54:48 10° SW 18:58:56 23° W 19:03:02 10° NW
NOSS 2-2 (D) 4.3 18:57:27 10° NW 19:02:46 90° ESE 19:02:49 89° SE
COSMOS 2455 2.9 19:03:08 10° SW 19:09:04 77° WNW 19:09:04 77° WNW
Cosmos 1655 Rocket 4.5 19:05:19 10° N 19:09:57 51° N 19:09:57 51° N
Okean O Rocket 4.1 19:13:28 10° SW 19:16:49 21° W 19:20:12 10° NW
ATLAS CENTAUR R/B 3.6 19:10:10 10° WSW 19:16:49 38° NW 19:16:49 38° NW
CZ-2C R/B 4.5 19:14:49 10° N 19:19:07 26° WNW 19:23:21 10° WSW
CZ-4C R/B 3.0 19:28:28 10° NW 19:35:01 75° NW 19:35:01 75° NW
BREEZE-M DEB (TANK) 4.4 19:13:06 10° SW 19:37:07 73° SSE 19:37:07 73° SSE
Cosmos 1980 Rocket 3.8 19:48:30 10° NW 19:52:30 30° W 19:52:30 30° W
Cosmos 2082 Rocket 4.1 19:57:18 10° WSW 20:00:28 26° W 20:00:28 26° W
